Location: Marcé
(47.5801°N, 0.3280°W)
Time: 15:53:55
(UTC+01:00)

Tiros 1 despin weight - Pass Details

Date: 15 December 2021
Orbit: 592 x 641 km, 48.2° (Epoch: 20 January)

Event Time Altitude Azimuth Distance (km) Brightness Sun altitude
Rises 12:32:38 0° 271° (W) 2,863 ? 18.9°
Reaches altitude 10° 12:34:57 10° 272° (W) 1,951 ? 19.0°
Maximum altitude 12:39:26 82° 1° (N) 610 ? 19.0°
Drops below altitude 10° 12:43:52 10° 89° (E) 1,928 ? 19.1°
Sets 12:46:08 0° 90° (E) 2,826 ? 19.1°
